Back to catalog

COSMOS 1275 DEB

AlivePO
NORAD 39966·DEBRIS·🇷🇺 Russia

Launched Jun 4, 1981 from Plesetsk Cosmodrome

Loading…

Next Passes (next 24 hours)

TLE

FreshSource: Space-Track

Epoch: Sep 14, 2026, 12:50 UTC

1 39966U 81053PC  26257.53526265  .00000874  00000-0  53992-3 0  9996
2 39966  82.7042 287.3737 0041671 112.4457  41.7022 14.03864992625665

Track COSMOS 1275 DEB in real time with AllMySat

Download on the App Store